Location: Beckenweiler
(47.8256°N, 9.4825°E)
Time: 07:09:43
(UTC+00:00)

Daily predictions for brighter satellites

Satellite Brightness Start Highest point End
(mag) Time Altitude Azimuth Time Altitude Azimuth Time Altitude Azimuth
ERS-1 Rocket 3.8 20:04:36 10° SE 20:09:13 38° ENE 20:13:53 10° N
Cosmos 1745 Rocket 4.3 20:03:59 10° NNW 20:10:07 72° W 20:16:14 10° S
Cosmos 2056 Rocket 3.8 20:06:13 10° S 20:11:22 50° ESE 20:16:36 10° NNE
Cosmos 1140 Rocket 3.8 20:06:56 10° NNW 20:12:07 68° WSW 20:17:14 10° S
Cosmos 2084 3.9 20:10:15 10° S 20:13:42 32° ESE 20:17:11 10° ENE
Cosmos 1455 3.0 20:11:57 10° N 20:15:29 35° ENE 20:19:00 10° SE
Cosmos 1544 Rocket 4.1 20:12:38 10° N 20:16:47 43° ENE 20:20:55 10° SSE
Cosmos 1953 4.2 20:13:29 10° NNW 20:16:53 28° W 20:20:18 10° SSW
CZ-4B R/B 1.4 20:14:55 10° N 20:17:47 66° WNW 20:20:38 10° SSW
X-37B 1.6 20:16:23 10° SSW 20:18:38 22° SSE 20:20:54 10° ESE
Cosmos 676 Rocket 4.3 20:14:45 10° NNW 20:20:02 59° ENE 20:25:12 10° SE
Cosmos 1420 Rocket 4.3 20:15:25 10° S 20:20:25 47° ESE 20:25:29 10° NNE
Cosmos 1980 Rocket 4.4 20:20:09 10° N 20:23:26 15° NE 20:26:43 10° ENE
Resurs 01 Rocket 2.9 20:21:47 10° SSW 20:25:57 39° W 20:30:09 10° NNW
Cosmos 1697 Rocket 4.3 20:22:39 10° N 20:27:10 24° NE 20:31:39 10° E
Cosmos 2369 Rocket 4.5 20:23:25 10° WNW 20:27:10 19° W 20:30:55 10° SW
SPOT 1/Viking Rocket 4.3 20:22:53 10° S 20:27:51 50° W 20:32:53 10° NNW
IRAS Rocket 4.3 20:22:48 10° NNE 20:28:27 86° ESE 20:34:02 10° SSW
USA 32 4.1 20:26:14 10° S 20:31:21 62° E 20:36:31 10° NNE
Ariane Rocket 3.8 20:32:05 10° S 20:37:01 48° W 20:41:58 10° NNW
Cosmos 1954 Rocket 4.0 20:33:59 10° NNW 20:39:19 89° ENE 20:44:08 12° SSE
Cosmos 1656 4.1 20:36:28 10° NNW 20:41:47 50° ENE 20:46:33 13° SE
Meteor 1-24 Rocket 3.6 20:38:01 10° S 20:43:19 90° W 20:48:46 10° NNE
CZ-2C R/B 4.0 20:39:08 10° NNE 20:43:36 47° E 20:47:51 11° S
USA 267 3.6 20:37:42 10° ENE 20:43:53 43° SE 20:50:02 10° SSW
NOSS 2-1 (C) 4.0 20:40:39 10° NW 20:45:03 78° NE 20:50:28 14° SE
Cosmos 724 4.4 20:44:51 10° SSW 20:50:27 52° ESE 20:56:04 10° NE
Cosmos 2315 Rocket 4.3 20:45:30 10° SSW 20:51:49 72° W 20:58:09 10° N
Helios 1A Rocket 3.0 20:49:35 13° S 20:53:13 80° WSW 20:57:20 10° NNW
NOSS 2-1 (D) 4.0 20:50:57 10° NW 20:55:26 90° NE 21:00:34 15° SE
Cosmos 1833 Rocket 3.8 20:53:24 15° SSE 20:56:48 26° ESE 21:01:21 10° NE
SL-8 R/B 3.8 20:53:32 10° W 20:58:21 83° N 21:03:12 10° E
ARIANE 5 R/B 2.8 20:55:09 16° SSE 20:58:37 61° ENE 21:03:01 10° N
SPOT 5 2.9 20:58:11 12° S 21:02:14 65° WSW 21:06:35 10° NNW
ATLAS 5 CENTAUR R/B 4.1 20:52:11 10° NW 21:03:35 39° WSW 21:07:16 12° S
Cosmos 1025 Rocket 4.1 21:00:08 10° SSW 21:04:13 44° WNW 21:08:21 10° N
Lacrosse 5 rocket 1.9 21:03:12 10° WNW 21:06:52 41° SW 21:09:19 19° SSE
Spot 2 Rocket 3.9 21:03:13 12° S 21:07:55 60° WSW 21:13:00 10° NNW
Cosmos 2074 Rocket 4.0 21:03:00 10° N 21:09:19 79° E 21:14:25 16° SSE
RESURS DK-1 3.1 21:08:51 10° NNW 21:12:51 45° NE 21:15:36 18° ESE
Cosmos 1452 Rocket 3.7 21:08:16 12° S 21:13:01 55° ESE 21:18:09 10° NNE
Tiangong 2.4 21:12:16 10° WSW 21:14:50 22° S 21:15:07 22° S
Cosmos 1271 Rocket 3.6 21:11:33 10° NNW 21:15:23 47° W 21:18:36 14° SSW
ATLAS 2AS CENTAUR R/B 2.9 21:09:28 10° NW 21:16:29 63° WSW 21:21:29 18° SSE
Cosmos 2082 Rocket 3.8 21:15:47 14° ESE 21:17:37 16° E 21:21:01 10° ENE
USA 234 3.5 21:12:22 10° ESE 21:18:53 70° NNE 21:25:24 10° NW
Cosmos 1607 4.4 21:18:58 10° SW 21:25:09 63° NW 21:31:19 10° NE
SAR-Lupe-1 4.4 21:22:29 10° NNE 21:25:57 46° E 21:27:32 27° SSE
Cosmos 1110 Rocket 4.4 21:23:04 19° S 21:26:31 46° ESE 21:31:34 10° NNE
Nadezhda 1 Rocket 4.0 21:22:54 17° S 21:27:34 63° E 21:33:34 10° NNE
Lacrosse 5 2.2 21:24:24 10° WNW 21:29:24 54° SW 21:32:24 23° SSE
Cosmos 1536 Rocket 3.8 21:26:38 13° SSW 21:30:30 68° W 21:34:52 10° N
Cosmos 2154 Rocket 4.0 21:26:29 10° N 21:32:45 83° E 21:37:10 20° SSE
USA 276 1.8 21:31:29 10° WSW 21:34:29 77° SSE 21:37:29 10° ENE
Terra 2.6 21:33:41 15° SSW 21:37:19 45° W 21:41:55 10° NNW
Cosmos 1610 Rocket 4.5 21:31:11 10° N 21:37:24 81° E 21:41:43 21° SSE
Cosmos 2228 2.9 21:33:27 10° N 21:37:43 82° W 21:40:08 25° S
Cosmos 1606 Rocket 3.6 21:33:40 10° N 21:38:00 66° E 21:40:15 27° SSE
Cosmos 2344 4.4 21:29:37 10° NW 21:38:18 72° NE 21:49:16 13° SE
Cosmos 1295 Rocket 4.5 21:35:30 10° N 21:41:49 90° E 21:46:05 22° S
Cosmos 1825 4.2 21:44:54 13° E 21:45:38 14° E 21:47:37 10° NE
ERS-1 Rocket 4.4 21:43:54 11° SSW 21:48:05 31° W 21:52:33 10° NNW
Cosmos 1455 4.5 21:48:00 10° NW 21:50:41 19° W 21:53:22 10° SW
COSMOS 2406 3.7 21:49:46 24° SSE 21:52:41 42° ESE 21:58:05 10° NE
Cosmos 2084 Rocket 4.5 21:49:39 10° NNW 21:53:16 36° NE 21:56:07 15° ESE
X-37B 1.2 21:51:03 10° WSW 21:53:00 34° SW 21:53:00 34° SW
Cosmos 2369 4.1 21:51:59 10° NNW 21:57:39 56° ENE 22:01:22 21° SE
Cosmos 1741 Rocket 4.3 21:52:57 10° NNW 21:58:11 59° WSW 22:01:12 25° S
SL-16 R/B 4.3 21:55:21 10° N 21:59:29 20° NE 22:03:37 10° E
Cosmos 1726 Rocket 3.4 21:58:52 10° N 22:03:12 88° W 22:05:09 32° S
Cosmos 968 Rocket 3.9 21:59:33 10° NNW 22:04:41 57° ENE 22:07:37 25° SE
SL-8 Rocket 4.2 21:59:13 10° N 22:05:26 60° ENE 22:09:01 25° SSE
Spot 4 4.0 22:06:05 28° SE 22:08:27 63° ENE 22:13:12 10° N
Cosmos 1980 Rocket 2.5 22:03:02 10° NNW 22:08:42 60° ENE 22:12:13 23° SE
Meteor 1-11 4.3 22:05:48 27° SSE 22:08:47 60° E 22:14:17 10° NNE
Cosmos 1697 Rocket 2.7 22:06:06 10° NNW 22:11:44 73° WSW 22:14:40 29° SSE
ALOS 2 3.3 22:11:52 26° SE 22:13:53 43° ENE 22:18:03 10° N
Cosmos 1328 4.1 22:12:23 27° SSW 22:14:26 66° WNW 22:18:26 10° N
Cosmos 1892 3.0 22:13:39 39° SE 22:14:35 50° E 22:18:14 10° NNE
Cosmos 2218 Rocket 4.3 22:09:00 10° N 22:15:21 61° ENE 22:19:02 26° SSE
Cosmos 967 Rocket 4.5 22:13:04 16° SSW 22:18:18 74° ESE 22:24:46 10° NE
Cosmos 192 4.3 22:16:35 31° S 22:18:49 64° ESE 22:23:41 10° NNE
Cosmos 2366 rocket 4.2 22:14:20 10° N 22:20:38 66° ENE 22:24:11 27° SSE
Cosmos 2341 Rocket 4.0 22:15:39 10° N 22:22:02 89° W 22:25:37 28° S
In-Cosmos 22 Rocket 4.4 22:21:57 30° SSE 22:24:34 55° E 22:29:56 10° NNE
Cosmos 1633 4.4 22:24:46 18° E 22:25:06 18° E 22:27:31 10° NE
ASTEX 1 3.8 22:21:56 10° N 22:26:52 61° W 22:29:50 24° SSW
USA 267 3.5 22:20:38 10° NE 22:27:09 73° NNW 22:33:40 10° WSW
ADEOS Rocket 3.7 22:23:16 24° SE 22:27:51 67° ENE 22:35:25 10° N
Cosmos 2058 Rocket 3.1 22:30:04 10° NNW 22:34:28 72° W 22:36:09 37° S
Cosmos 1892 Rocket 4.0 22:36:29 27° SW 22:38:44 56° WNW 22:43:05 10° N
Cosmos 2322 Rocket 4.0 22:34:55 10° N 22:39:39 26° NE 22:44:22 10° ESE
Cosmos 1833 Rocket 3.2 22:35:01 11° SW 22:40:21 56° WNW 22:45:55 10° NNE
SL-8 R/B 3.7 22:36:07 10° WNW 22:40:52 60° SSW 22:42:54 32° SE
Cosmos 2278 4.0 22:37:06 10° NNW 22:42:48 65° ENE 22:46:07 26° SE
H-2A R/B 3.4 22:39:40 10° NNE 22:43:53 71° ESE 22:45:11 42° S
Cosmos 1959 Rocket 4.4 22:40:10 10° N 22:46:19 87° W 22:49:27 31° S
Cosmos 1408 3.0 22:45:59 37° SW 22:46:56 50° WNW 22:50:19 10° N
GP-B 4.0 22:43:34 10° NNW 22:47:45 42° W 22:49:54 24° SW
Cosmos 1992 Rocket 4.4 22:46:40 33° SSE 22:48:29 47° ESE 22:53:30 10° NNE
ATLAS 5 CENTAUR R/B 2.7 22:50:40 22° ESE 22:50:40 22° ESE 22:53:25 10° ENE
Cosmos 807 4.5 22:46:50 10° N 22:50:14 55° ENE 22:50:35 51° ESE
RESURS DK-1 4.1 22:47:27 10° WNW 22:50:32 20° WSW 22:51:26 19° SW
TIMED 4.4 22:50:55 42° S 22:52:18 73° ESE 22:56:40 10° NNE
Cosmos-2242 3.8 22:50:47 10° N 22:54:50 42° ENE 22:56:21 30° ESE
Cosmos 1626 Rocket 3.4 22:54:02 43° S 22:55:23 77° E 22:59:44 10° NNE
Cosmos 2181 Rocket 4.0 22:52:47 28° SSW 22:56:12 80° W 23:02:27 10° N
Cosmos 1867 3.5 22:54:20 10° NW 22:59:50 87° SW 23:02:32 31° SE
Cosmos 2082 Rocket 2.2 22:57:35 26° SSW 23:00:55 86° WNW 23:06:40 10° NNE
USA 234 3.6 22:59:13 30° S 23:02:06 46° SW 23:08:23 10° WNW
Okean 1-7 Rocket 3.7 23:06:13 37° SSW 23:07:53 69° W 23:12:22 10° N
Cosmos 1503 Rocket 4.5 23:03:37 10° NNW 23:08:52 55° ENE 23:11:50 25° SE
USA 276 2.7 23:07:19 10° W 23:10:16 53° N 23:13:13 10° ENE
Lacrosse 5 4.1 23:10:43 10° WSW 23:11:22 10° WSW 23:11:35 10° WSW
Cosmos 2058 4.0 23:14:21 28° ESE 23:15:27 32° E 23:19:13 10° NNE
FALCON 9 DEB 4.3 23:12:41 10° WNW 23:15:49 41° NNE 23:18:57 10° E
Cosmos 1821 Rocket 4.0 23:11:31 10° N 23:17:51 84° E 23:20:59 32° SSE
Meteor 2-20 4.4 23:15:05 32° S 23:18:01 75° E 23:24:08 10° NNE
Cosmos 2360 Rocket 3.7 23:14:56 10° NNW 23:20:01 32° NE 23:25:05 10° ESE
Cosmos 1825 2.8 23:19:32 36° WSW 23:20:34 47° WNW 23:24:12 10° N
SJ 16-02 2.3 23:18:44 10° N 23:22:59 43° ENE 23:25:18 23° ESE
BREEZE-M DEB (TANK) 4.1 23:20:04 10° WNW 23:23:46 89° NNE 23:39:55 10° ESE
Cosmos 1869 4.0 23:21:09 10° NNW 23:24:46 39° W 23:25:34 34° WSW
ERS-2 2.1 23:26:02 10° N 23:29:37 69° WNW 23:30:22 50° SW
Cosmos 2084 Rocket 4.2 23:29:07 10° WNW 23:32:33 31° WSW 23:32:33 31° WSW
Nadezhda 3 Rocket 3.9 23:30:29 32° S 23:33:30 82° E 23:39:41 10° N
Cosmos 1606 2.7 23:30:33 10° N 23:34:24 78° E 23:35:18 50° SSE
COSMOS 2406 4.4 23:31:47 10° WSW 23:37:03 38° NW 23:42:25 10° NNE
PSLV R/B 3.7 23:34:06 10° NNE 23:38:54 87° ESE 23:40:41 39° SSW
Cosmos 1932 4.4 23:37:53 25° SW 23:41:46 85° NW 23:48:09 10° NE
Cosmos 1758 Rocket 3.6 23:41:08 41° SSW 23:42:32 69° W 23:46:54 10° N
Nimbus 7 Rocket 4.4 23:38:10 10° NNE 23:44:07 90° W 23:47:07 31° SSW
Meteor 2-20 Rocket 4.4 23:41:09 32° S 23:44:11 85° E 23:50:20 10° N
SL-16 R/B 2.2 23:38:44 10° NNW 23:44:27 87° ENE 23:47:37 28° SSE
ALOS 2 4.2 23:49:16 20° WSW 23:50:25 22° W 23:53:49 10° NW
Cosmos 2221 3.4 23:47:18 10° N 23:51:27 42° ENE 23:53:34 25° SE
Cosmos 1980 Rocket 3.5 23:47:46 10° NW 23:52:17 25° WSW 23:53:58 21° SW
Cosmos 1812 Rocket 4.4 23:49:10 10° NNW 23:53:19 39° W 23:54:37 31° SW
